| time (UTC) | temp F | wind direction | speed MPH | gust MPH | rain 1hr in | rain 24hr in | rain mn in | humidity % | barometer mb |
| 20260510192208 | 70 | 208 | 2.0 | 2.0 | 0.00 | 0.02 | 0.02 | 33 | 998.2 |
| 20260510191704 | 69 | 32 | 2.0 | 4.0 | 0.00 | 0.02 | 0.02 | 35 | 998.3 |
| 20260510191201 | 69 | 24 | 5.0 | 6.0 | 0.00 | 0.02 | 0.02 | 37 | 998.2 |
| 20260510190658 | 69 | 341 | 1.0 | 2.0 | 0.00 | 0.02 | 0.02 | 43 | 998.2 |
| 20260510190155 | 68 | 86 | 2.0 | 2.0 | 0.00 | 0.02 | 0.02 | 40 | 998.1 |
| 20260510185652 | 66 | 34 | 0.0 | 1.0 | 0.00 | 0.02 | 0.02 | 43 | 998.2 |
| 20260510185150 | 65 | 26 | 1.0 | 4.0 | 0.00 | 0.02 | 0.02 | 38 | 998.0 |
| 20260510184646 | 64 | 28 | 0.0 | 0.0 | 0.00 | 0.02 | 0.02 | 47 | 998.0 |
| 20260510184142 | 65 | 29 | 1.0 | 3.0 | 0.00 | 0.02 | 0.02 | 39 | 997.9 |
| 20260510183638 | 65 | 16 | 0.0 | 2.0 | 0.00 | 0.02 | 0.02 | 39 | 998.1 |
| 20260510183133 | 66 | 79 | 0.0 | 1.0 | 0.00 | 0.02 | 0.02 | 44 | 997.9 |
| 20260510182630 | 67 | 114 | 1.0 | 2.0 | 0.00 | 0.02 | 0.02 | 43 | 997.8 |
| 20260510182125 | 67 | 289 | 1.0 | 3.0 | 0.00 | 0.02 | 0.02 | 47 | 997.9 |
| 20260510181623 | 68 | 47 | 2.0 | 9.0 | 0.00 | 0.02 | 0.02 | 45 | 998.0 |
| 20260510181119 | 68 | 25 | 1.0 | 2.0 | 0.00 | 0.02 | 0.02 | 45 | 998.0 |
| 20260510180615 | 67 | 273 | 2.0 | 3.0 | 0.00 | 0.02 | 0.02 | 44 | 997.9 |
| 20260510180113 | 66 | 292 | 1.0 | 2.0 | 0.00 | 0.02 | 0.02 | 47 | 997.7 |
| 20260510175609 | 66 | 317 | 1.0 | 6.0 | 0.00 | 0.02 | 0.02 | 47 | 997.6 |
| 20260510175104 | 66 | 320 | 1.0 | 3.0 | 0.00 | 0.02 | 0.02 | 49 | 997.9 |
| 20260510174603 | 66 | 349 | 1.0 | 4.0 | 0.00 | 0.02 | 0.02 | 48 | 998.0 |
| 20260510174100 | 65 | 335 | 1.0 | 3.0 | 0.00 | 0.02 | 0.02 | 54 | 997.9 |
| 20260510173555 | 65 | 342 | 1.0 | 2.0 | 0.00 | 0.02 | 0.02 | 46 | 998.2 |
| 20260510173052 | 65 | 280 | 3.0 | 3.0 | 0.00 | 0.02 | 0.02 | 44 | 998.2 |
| 20260510172548 | 65 | 274 | 2.0 | 2.0 | 0.00 | 0.02 | 0.02 | 46 | 998.3 |
| 20260510172044 | 64 | 346 | 0.0 | 1.0 | 0.00 | 0.02 | 0.02 | 43 | 998.3 |
| 20260510171540 | 65 | 259 | 1.0 | 6.0 | 0.00 | 0.02 | 0.02 | 47 | 998.2 |
| 20260510171038 | 65 | 331 | 1.0 | 1.0 | 0.00 | 0.02 | 0.02 | 43 | 998.4 |
| 20260510170534 | 65 | 309 | 2.0 | 3.0 | 0.00 | 0.02 | 0.02 | 43 | 998.2 |
| 20260510170031 | 66 | 349 | 1.0 | 3.0 | 0.00 | 0.02 | 0.02 | 45 | 998.3 |
| 20260510165526 | 65 | 232 | 0.0 | 1.0 | 0.00 | 0.02 | 0.02 | 50 | 998.2 |
| 20260510165023 | 65 | 309 | 2.0 | 3.0 | 0.00 | 0.02 | 0.02 | 44 | 998.1 |
| 20260510164520 | 64 | 32 | 2.0 | 2.0 | 0.00 | 0.02 | 0.02 | 49 | 998.4 |
| 20260510164016 | 64 | 245 | 1.0 | 2.0 | 0.00 | 0.02 | 0.02 | 44 | 998.3 |
| 20260510163512 | 64 | 36 | 1.0 | 3.0 | 0.00 | 0.02 | 0.02 | 50 | 998.2 |
| 20260510163008 | 63 | 342 | 1.0 | 2.0 | 0.00 | 0.02 | 0.02 | 50 | 998.4 |
| 20260510162504 | 63 | 351 | 1.0 | 1.0 | 0.00 | 0.02 | 0.02 | 53 | 998.1 |
| 20260510162000 | 62 | 314 | 1.0 | 3.0 | 0.00 | 0.02 | 0.02 | 54 | 998.2 |
| 20260510161456 | 62 | 310 | 1.0 | 1.0 | 0.00 | 0.02 | 0.02 | 51 | 998.2 |
| 20260510160954 | 62 | 341 | 1.0 | 1.0 | 0.00 | 0.02 | 0.02 | 52 | 998.4 |
| 20260510160451 | 63 | 270 | 1.0 | 2.0 | 0.00 | 0.02 | 0.02 | 50 | 998.3 |
| 20260510155949 | 63 | 349 | 1.0 | 1.0 | 0.00 | 0.02 | 0.02 | 56 | 998.5 |
| 20260510155446 | 63 | 3 | 0.0 | 3.0 | 0.00 | 0.02 | 0.02 | 57 | 998.4 |
| 20260510154943 | 62 | 14 | 1.0 | 2.0 | 0.00 | 0.02 | 0.02 | 54 | 998.7 |
| 20260510154439 | 62 | 74 | 1.0 | 1.0 | 0.00 | 0.02 | 0.02 | 55 | 998.5 |
| 20260510153937 | 61 | 46 | 2.0 | 3.0 | 0.00 | 0.02 | 0.02 | 50 | 998.5 |
| 20260510153434 | 62 | 68 | 1.0 | 3.0 | 0.00 | 0.02 | 0.02 | 50 | 998.3 |
| 20260510152931 | 62 | 253 | 4.0 | 6.0 | 0.00 | 0.02 | 0.02 | 51 | 998.2 |
| 20260510152429 | 62 | 359 | 0.0 | 2.0 | 0.00 | 0.02 | 0.02 | 57 | 998.2 |
| 20260510151925 | 62 | 332 | 1.0 | 2.0 | 0.00 | 0.02 | 0.02 | 52 | 998.0 |
| 20260510151422 | 61 | 344 | 1.0 | 1.0 | 0.00 | 0.02 | 0.02 | 57 | 998.1 |
| 20260510150918 | 61 | 16 | 1.0 | 1.0 | 0.00 | 0.02 | 0.02 | 56 | 997.8 |
| 20260510150414 | 62 | 343 | 1.0 | 3.0 | 0.00 | 0.02 | 0.02 | 52 | 998.0 |
| 20260510145910 | 61 | 43 | 2.0 | 4.0 | 0.00 | 0.02 | 0.02 | 53 | 997.7 |
| 20260510145407 | 61 | 18 | 1.0 | 2.0 | 0.00 | 0.02 | 0.02 | 57 | 997.9 |
| 20260510144903 | 61 | 42 | 2.0 | 2.0 | 0.00 | 0.02 | 0.02 | 60 | 997.6 |
| 20260510144355 | 61 | 357 | 0.0 | 1.0 | 0.00 | 0.02 | 0.02 | 58 | 997.7 |
| 20260510143855 | 60 | 341 | 0.0 | 2.0 | 0.00 | 0.02 | 0.02 | 65 | 997.6 |
| 20260510143351 | 60 | 15 | 0.0 | 3.0 | 0.00 | 0.02 | 0.02 | 56 | 997.2 |
| 20260510142848 | 59 | 288 | 3.0 | 4.0 | 0.00 | 0.02 | 0.02 | 56 | 997.6 |
| 20260510142345 | 58 | 77 | 1.0 | 4.0 | 0.00 | 0.02 | 0.02 | 58 | 997.5 |
| 20260510141841 | 58 | 4 | 0.0 | 0.0 | 0.00 | 0.02 | 0.02 | 62 | 997.2 |
| 20260510141339 | 58 | 357 | 1.0 | 2.0 | 0.00 | 0.02 | 0.02 | 58 | 997.4 |
| 20260510140836 | 58 | 20 | 0.0 | 1.0 | 0.00 | 0.02 | 0.02 | 63 | 997.1 |
| 20260510140332 | 57 | 4 | 1.0 | 2.0 | 0.00 | 0.02 | 0.02 | 62 | 997.1 |
| 20260510135831 | 57 | 268 | 1.0 | 2.0 | 0.00 | 0.02 | 0.02 | 66 | 996.8 |
| 20260510135327 | 57 | 283 | 0.0 | 3.0 | 0.00 | 0.02 | 0.02 | 65 | 996.6 |
| 20260510134825 | 56 | 277 | 0.0 | 2.0 | 0.00 | 0.02 | 0.02 | 64 | 996.6 |
| 20260510134322 | 56 | 290 | 0.0 | 1.0 | 0.00 | 0.02 | 0.02 | 66 | 996.9 |
| 20260510133817 | 56 | 254 | 1.0 | 2.0 | 0.00 | 0.02 | 0.02 | 66 | 996.9 |
| 20260510133314 | 56 | 289 | 0.0 | 0.0 | 0.00 | 0.02 | 0.02 | 71 | 996.8 |
| 20260510132809 | 55 | 319 | 0.0 | 2.0 | 0.00 | 0.02 | 0.02 | 69 | 997.2 |
| 20260510132308 | 55 | 334 | 0.0 | 0.0 | 0.00 | 0.02 | 0.02 | 69 | 996.7 |
| 20260510131804 | 55 | 315 | 0.0 | 0.0 | 0.00 | 0.02 | 0.02 | 73 | 996.6 |
| 20260510131302 | 55 | 323 | 0.0 | 1.0 | 0.00 | 0.02 | 0.02 | 71 | 996.6 |
| 20260510130758 | 54 | 50 | 0.0 | 1.0 | 0.00 | 0.02 | 0.02 | 72 | 996.6 |
| 20260510130255 | 54 | 56 | 0.0 | 1.0 | 0.00 | 0.02 | 0.02 | 74 | 996.4 |
| 20260510125752 | 54 | 25 | 0.0 | 0.0 | 0.00 | 0.02 | 0.02 | 73 | 996.6 |
| 20260510125248 | 54 | 339 | 1.0 | 1.0 | 0.00 | 0.02 | 0.02 | 72 | 996.7 |
| 20260510124745 | 54 | 44 | 1.0 | 2.0 | 0.00 | 0.02 | 0.02 | 72 | 996.8 |
| 20260510124242 | 54 | 16 | 1.0 | 3.0 | 0.00 | 0.02 | 0.02 | 73 | 996.5 |
| 20260510123737 | 54 | 6 | 1.0 | 1.0 | 0.00 | 0.02 | 0.02 | 78 | 996.2 |
| 20260510123234 | 54 | 359 | 0.0 | 2.0 | 0.00 | 0.02 | 0.02 | 81 | 996.3 |
| 20260510122730 | 54 | 357 | 1.0 | 1.0 | 0.00 | 0.02 | 0.02 | 78 | 996.2 |
| 20260510122226 | 54 | 358 | 1.0 | 1.0 | 0.00 | 0.02 | 0.02 | 78 | 996.1 |
| 20260510121722 | 53 | 330 | 1.0 | 2.0 | 0.00 | 0.02 | 0.02 | 78 | 995.9 |
| 20260510121220 | 53 | 359 | 0.0 | 1.0 | 0.00 | 0.02 | 0.02 | 81 | 995.9 |
| 20260510120717 | 53 | 298 | 1.0 | 2.0 | 0.00 | 0.02 | 0.02 | 78 | 995.6 |
| 20260510120214 | 54 | 12 | 1.0 | 1.0 | 0.00 | 0.02 | 0.02 | 80 | 995.4 |
| 20260510115709 | 53 | 345 | 0.0 | 0.0 | 0.00 | 0.02 | 0.02 | 81 | 995.2 |
| 20260510115208 | 53 | 344 | 1.0 | 1.0 | 0.00 | 0.02 | 0.02 | 80 | 995.5 |
| 20260510114703 | 53 | 317 | 0.0 | 0.0 | 0.00 | 0.02 | 0.02 | 82 | 995.4 |
| 20260510114200 | 53 | 349 | 1.0 | 1.0 | 0.00 | 0.02 | 0.02 | 82 | 995.3 |
| 20260510113655 | 53 | 334 | 0.0 | 1.0 | 0.00 | 0.02 | 0.02 | 82 | 995.3 |
| 20260510113152 | 54 | 333 | 0.0 | 1.0 | 0.00 | 0.02 | 0.02 | 82 | 995.1 |
| 20260510112649 | 54 | 15 | 3.0 | 7.0 | 0.00 | 0.02 | 0.02 | 81 | 994.7 |
| 20260510112146 | 54 | 23 | 0.0 | 2.0 | 0.00 | 0.02 | 0.02 | 83 | 994.9 |
| 20260510111642 | 54 | 346 | 0.0 | 2.0 | 0.00 | 0.02 | 0.02 | 82 | 994.7 |
| 20260510111138 | 54 | 344 | 0.0 | 1.0 | 0.00 | 0.02 | 0.02 | 84 | 994.5 |
| 20260510110633 | 54 | 348 | 1.0 | 2.0 | 0.00 | 0.02 | 0.02 | 84 | 994.3 |
| 20260510110131 | 54 | 338 | 1.0 | 1.0 | 0.00 | 0.02 | 0.02 | 85 | 994.3 |
| 20260510105627 | 54 | 335 | 0.0 | 1.0 | 0.00 | 0.02 | 0.02 | 84 | 994.4 |
| 20260510105126 | 54 | 314 | 1.0 | 4.0 | 0.00 | 0.02 | 0.02 | 85 | 994.1 |
| 20260510104624 | 54 | 1 | 0.0 | 0.0 | 0.00 | 0.02 | 0.02 | 87 | 993.8 |
| 20260510104120 | 54 | 358 | 0.0 | 0.0 | 0.00 | 0.02 | 0.02 | 87 | 993.9 |
| 20260510103617 | 55 | 359 | 0.0 | 1.0 | 0.00 | 0.02 | 0.02 | 86 | 993.8 |
| 20260510103113 | 55 | 20 | 1.0 | 2.0 | 0.00 | 0.02 | 0.02 | 89 | 993.7 |
| 20260510102609 | 55 | 347 | 0.0 | 0.0 | 0.00 | 0.02 | 0.02 | 90 | 993.6 |
| 20260510102105 | 55 | 334 | 0.0 | 1.0 | 0.00 | 0.02 | 0.02 | 91 | 993.6 |
| 20260510101603 | 55 | 334 | 0.0 | 1.0 | 0.00 | 0.02 | 0.02 | 91 | 993.4 |
| 20260510101101 | 55 | 352 | 0.0 | 1.0 | 0.00 | 0.02 | 0.02 | 91 | 993.3 |
| 20260510100556 | 55 | 347 | 0.0 | 0.0 | 0.00 | 0.02 | 0.02 | 91 | 993.2 |
| 20260510100054 | 55 | 344 | 0.0 | 0.0 | 0.00 | 0.02 | 0.02 | 92 | 993.5 |
| 20260510095550 | 55 | 343 | 0.0 | 1.0 | 0.00 | 0.02 | 0.02 | 93 | 993.3 |
| 20260510095049 | 56 | 17 | 0.0 | 0.0 | 0.00 | 0.02 | 0.02 | 95 | 992.9 |
| 20260510094544 | 56 | 16 | 1.0 | 1.0 | 0.00 | 0.02 | 0.02 | 95 | 993.2 |
| 20260510094040 | 56 | 24 | 1.0 | 1.0 | 0.00 | 0.02 | 0.02 | 96 | 993.0 |
| 20260510093536 | 56 | 338 | 0.0 | 0.0 | 0.00 | 0.02 | 0.02 | 96 | 993.1 |
| 20260510093033 | 56 | 337 | 0.0 | 0.0 | 0.00 | 0.02 | 0.02 | 96 | 992.9 |
| 20260510092530 | 56 | 337 | 0.0 | 0.0 | 0.00 | 0.02 | 0.02 | 96 | 993.0 |
| 20260510092029 | 56 | 338 | 0.0 | 0.0 | 0.00 | 0.02 | 0.02 | 96 | 992.8 |
| 20260510091526 | 56 | 337 | 0.0 | 0.0 | 0.00 | 0.02 | 0.02 | 96 | 992.8 |
| 20260510091022 | 56 | 337 | 0.0 | 0.0 | 0.00 | 0.02 | 0.02 | 96 | 992.9 |
| 20260510090520 | 56 | 337 | 1.0 | 1.0 | 0.00 | 0.02 | 0.02 | 96 | 993.0 |
| 20260510090015 | 56 | 278 | 0.0 | 0.0 | 0.00 | 0.02 | 0.02 | 96 | 992.9 |
| 20260510085510 | 56 | 278 | 0.0 | 0.0 | 0.00 | 0.02 | 0.02 | 96 | 992.9 |
| 20260510085006 | 57 | 278 | 0.0 | 0.0 | 0.00 | 0.02 | 0.02 | 96 | 992.7 |
| 20260510084503 | 56 | 278 | 0.0 | 0.0 | 0.00 | 0.02 | 0.02 | 96 | 992.7 |
| 20260510083959 | 56 | 278 | 0.0 | 0.0 | 0.00 | 0.02 | 0.02 | 96 | 992.4 |
| 20260510083457 | 57 | 278 | 0.0 | 0.0 | 0.00 | 0.02 | 0.02 | 96 | 992.6 |
| 20260510082957 | 57 | 278 | 0.0 | 0.0 | 0.00 | 0.02 | 0.02 | 96 | 992.7 |
| 20260510082455 | 57 | 278 | 0.0 | 0.0 | 0.00 | 0.02 | 0.02 | 96 | 992.3 |
| 20260510081954 | 57 | 278 | 0.0 | 0.0 | 0.00 | 0.02 | 0.02 | 96 | 992.0 |
| 20260510081450 | 57 | 278 | 0.0 | 0.0 | 0.00 | 0.02 | 0.02 | 95 | 992.1 |
| 20260510080947 | 57 | 278 | 0.0 | 0.0 | 0.00 | 0.02 | 0.02 | 95 | 992.1 |
| 20260510080445 | 57 | 278 | 0.0 | 0.0 | 0.00 | 0.02 | 0.02 | 95 | 992.0 |
| 20260510075942 | 57 | 278 | 0.0 | 0.0 | 0.00 | 0.02 | 0.02 | 95 | 992.0 |
| 20260510075440 | 58 | 278 | 0.0 | 0.0 | 0.00 | 0.02 | 0.02 | 95 | 991.8 |
| 20260510074937 | 58 | 278 | 0.0 | 0.0 | 0.00 | 0.02 | 0.02 | 95 | 991.7 |
| 20260510074434 | 58 | 278 | 0.0 | 0.0 | 0.00 | 0.02 | 0.02 | 95 | 991.4 |
| 20260510073930 | 58 | 278 | 0.0 | 0.0 | 0.00 | 0.02 | 0.02 | 94 | 991.7 |
| 20260510073425 | 58 | 278 | 0.0 | 0.0 | 0.00 | 0.02 | 0.02 | 95 | 991.6 |
| 20260510072922 | 58 | 278 | 0.0 | 0.0 | 0.00 | 0.02 | 0.02 | 95 | 991.5 |
| 20260510072419 | 58 | 278 | 0.0 | 0.0 | 0.00 | 0.02 | 0.02 | 94 | 991.4 |
| 20260510071914 | 58 | 278 | 0.0 | 0.0 | 0.00 | 0.02 | 0.02 | 94 | 991.4 |
| 20260510071411 | 58 | 278 | 0.0 | 0.0 | 0.00 | 0.02 | 0.02 | 94 | 991.4 |
| 20260510070910 | 58 | 278 | 0.0 | 0.0 | 0.00 | 0.02 | 0.02 | 94 | 991.3 |
| 20260510070407 | 58 | 278 | 0.0 | 0.0 | 0.00 | 0.02 | 0.02 | 94 | 991.5 |
| 20260510065902 | 58 | 278 | 0.0 | 0.0 | 0.00 | 0.02 | 0.02 | 94 | 991.2 |
| 20260510065358 | 59 | 278 | 0.0 | 0.0 | 0.00 | 0.02 | 0.02 | 94 | 991.1 |
| 20260510064855 | 59 | 277 | 0.0 | 0.0 | 0.00 | 0.02 | 0.02 | 94 | 991.2 |
| 20260510064353 | 59 | 277 | 0.0 | 0.0 | 0.00 | 0.02 | 0.02 | 94 | 991.3 |
| 20260510063849 | 59 | 277 | 0.0 | 0.0 | 0.00 | 0.02 | 0.02 | 94 | 991.3 |
| 20260510063346 | 59 | 277 | 0.0 | 0.0 | 0.00 | 0.02 | 0.02 | 93 | 991.4 |
| 20260510062843 | 59 | 277 | 0.0 | 0.0 | 0.00 | 0.02 | 0.02 | 93 | 991.4 |
| 20260510062338 | 59 | 294 | 0.0 | 0.0 | 0.00 | 0.02 | 0.02 | 93 | 991.0 |
| 20260510061833 | 59 | 295 | 1.0 | 2.0 | 0.00 | 0.02 | 0.02 | 94 | 991.0 |
| 20260510061330 | 59 | 304 | 0.0 | 2.0 | 0.00 | 0.02 | 0.02 | 94 | 990.7 |
| 20260510060826 | 60 | 341 | 0.0 | 0.0 | 0.00 | 0.02 | 0.02 | 94 | 990.7 |
| 20260510060324 | 60 | 336 | 1.0 | 2.0 | 0.00 | 0.02 | 0.02 | 94 | 990.7 |
| 20260510055820 | 60 | 351 | 2.0 | 2.0 | 0.00 | 0.02 | 0.02 | 94 | 991.0 |
| 20260510055319 | 60 | 338 | 1.0 | 2.0 | 0.00 | 0.02 | 0.02 | 94 | 990.7 |
| 20260510054819 | 60 | 30 | 1.0 | 2.0 | 0.00 | 0.02 | 0.02 | 94 | 990.9 |
| 20260510054315 | 60 | 45 | 1.0 | 2.0 | 0.00 | 0.02 | 0.02 | 94 | 990.9 |
| 20260510053810 | 60 | 31 | 1.0 | 1.0 | 0.00 | 0.02 | 0.02 | 94 | 990.7 |
| 20260510053305 | 60 | 40 | 1.0 | 3.0 | 0.00 | 0.02 | 0.02 | 93 | 990.6 |
| 20260510052802 | 60 | 96 | 1.0 | 3.0 | 0.00 | 0.02 | 0.02 | 93 | 991.1 |
| 20260510052258 | 60 | 5 | 0.0 | 1.0 | 0.00 | 0.02 | 0.02 | 93 | 991.0 |
| 20260510051754 | 60 | 355 | 1.0 | 1.0 | 0.00 | 0.02 | 0.02 | 92 | 990.3 |
| 20260510051251 | 60 | 49 | 1.0 | 1.0 | 0.00 | 0.02 | 0.02 | 93 | 990.1 |
| 20260510050748 | 60 | 53 | 0.0 | 0.0 | 0.09 | 0.02 | 0.02 | 92 | 989.7 |
| 20260510050245 | 61 | 64 | 0.0 | 0.0 | 0.26 | 0.02 | 0.02 | 91 | 989.1 |
| 20260510045741 | 61 | 63 | 0.0 | 0.0 | 0.17 | 0.14 | 0.14 | 90 | 989.6 |
| 20260510045238 | 60 | 52 | 0.0 | 2.0 | 0.07 | 0.11 | 0.11 | 93 | 989.9 |
| 20260510044735 | 60 | 191 | 0.0 | 0.0 | 0.07 | 0.11 | 0.11 | 94 | 990.0 |
| 20260510044233 | 60 | 191 | 0.0 | 0.0 | 0.09 | 0.10 | 0.10 | 93 | 990.1 |
| 20260510043727 | 61 | 192 | 0.0 | 0.0 | 0.00 | 0.08 | 0.08 | 93 | 989.9 |
| 20260510043225 | 61 | 192 | 0.0 | 0.0 | 0.07 | 0.08 | 0.08 | 93 | 990.2 |
| 20260510042722 | 61 | 131 | 2.0 | 2.0 | 0.07 | 0.08 | 0.08 | 92 | 990.1 |
| 20260510042218 | 61 | 29 | 0.0 | 0.0 | 0.09 | 0.07 | 0.07 | 91 | 990.2 |
| 20260510041715 | 61 | 28 | 1.0 | 1.0 | 0.26 | 0.07 | 0.07 | 91 | 990.3 |
| 20260510041212 | 61 | 34 | 2.0 | 2.0 | 0.09 | 0.04 | 0.04 | 89 | 990.8 |
| 20260510040709 | 61 | 1 | 0.0 | 1.0 | 0.07 | 0.03 | 0.03 | 90 | 990.2 |
| 20260510040206 | 62 | 4 | 0.0 | 1.0 | 0.07 | 0.03 | 0.03 | 89 | 990.2 |
| 20260510035701 | 62 | 358 | 2.0 | 2.0 | 0.00 | 0.02 | 0.02 | 88 | 990.2 |
| 20260510035157 | 62 | 5 | 1.0 | 1.0 | 0.00 | 0.02 | 0.02 | 88 | 990.2 |
| 20260510034653 | 62 | 12 | 3.0 | 4.0 | 0.00 | 0.02 | 0.02 | 87 | 990.2 |
| 20260510034151 | 62 | 293 | 2.0 | 3.0 | 0.00 | 0.02 | 0.02 | 87 | 989.5 |
| 20260510033647 | 62 | 14 | 1.0 | 2.0 | 0.00 | 0.02 | 0.02 | 87 | 989.6 |
| 20260510033145 | 62 | 11 | 1.0 | 6.0 | 0.09 | 0.02 | 0.02 | 86 | 989.8 |
| 20260510032641 | 63 | 68 | 2.0 | 8.0 | 0.09 | 0.02 | 0.02 | 85 | 989.8 |
| 20260510032136 | 63 | 348 | 2.0 | 7.0 | 0.00 | 0.00 | 0.00 | 85 | 989.7 |
| 20260510031632 | 63 | 14 | 3.0 | 4.0 | 0.00 | 0.00 | 0.00 | 84 | 989.9 |
| 20260510031129 | 64 | 13 | 2.0 | 8.0 | 0.00 | 0.00 | 0.00 | 81 | 990.0 |
| 20260510030628 | 64 | 43 | 3.0 | 6.0 | 0.00 | 0.00 | 0.00 | 79 | 989.7 |
| 20260510030126 | 65 | 38 | 6.0 | 11.0 | 0.00 | 0.00 | 0.00 | 76 | 989.8 |
| 20260510025623 | 66 | 353 | 3.0 | 9.0 | 0.00 | 0.00 | 0.00 | 73 | 989.9 |
| 20260510025121 | 67 | 8 | 7.0 | 14.0 | 0.00 | 0.00 | 0.00 | 67 | 990.2 |
| 20260510024617 | 68 | 45 | 6.0 | 13.0 | 0.00 | 0.00 | 0.00 | 61 | 989.6 |
| 20260510024114 | 69 | 6 | 0.0 | 0.0 | 0.00 | 0.00 | 0.00 | 55 | 987.8 |
| 20260510023610 | 70 | 6 | 0.0 | 0.0 | 0.00 | 0.00 | 0.00 | 54 | 987.8 |
| 20260510023108 | 70 | 6 | 0.0 | 0.0 | 0.00 | 0.00 | 0.00 | 53 | 987.3 |
| 20260510022607 | 70 | 6 | 0.0 | 0.0 | 0.00 | 0.00 | 0.00 | 54 | 987.4 |
| 20260510022102 | 70 | 6 | 0.0 | 0.0 | 0.00 | 0.00 | 0.00 | 54 | 987.2 |
| 20260510021558 | 70 | 6 | 0.0 | 0.0 | 0.00 | 0.00 | 0.00 | 53 | 987.2 |
| 20260510021056 | 70 | 6 | 0.0 | 0.0 | 0.00 | 0.00 | 0.00 | 52 | 987.1 |
| 20260510020555 | 70 | 6 | 0.0 | 0.0 | 0.00 | 0.00 | 0.00 | 51 | 987.2 |
| 20260510020051 | 70 | 6 | 0.0 | 0.0 | 0.00 | 0.00 | 0.00 | 52 | 987.2 |
| 20260510015547 | 70 | 6 | 0.0 | 0.0 | 0.00 | 0.00 | 0.00 | 52 | 987.1 |
| 20260510015044 | 70 | 6 | 0.0 | 0.0 | 0.00 | 0.00 | 0.00 | 52 | 987.0 |
| 20260510014540 | 71 | 6 | 0.0 | 0.0 | 0.00 | 0.00 | 0.00 | 51 | 986.8 |
| 20260510014038 | 71 | 6 | 0.0 | 0.0 | 0.00 | 0.00 | 0.00 | 51 | 986.9 |
| 20260510013532 | 71 | 6 | 0.0 | 0.0 | 0.00 | 0.00 | 0.00 | 51 | 986.7 |
| 20260510013028 | 71 | 6 | 0.0 | 0.0 | 0.00 | 0.00 | 0.00 | 51 | 986.5 |
| 20260510012528 | 72 | 6 | 0.0 | 0.0 | 0.00 | 0.00 | 0.00 | 51 | 986.6 |
| 20260510012025 | 73 | 6 | 0.0 | 0.0 | 0.00 | 0.00 | 0.00 | 50 | 986.6 |
| 20260510011524 | 73 | 5 | 0.0 | 0.0 | 0.00 | 0.00 | 0.00 | 48 | 986.5 |
| 20260510011020 | 73 | 6 | 0.0 | 0.0 | 0.00 | 0.00 | 0.00 | 47 | 986.7 |
| 20260510010517 | 73 | 6 | 0.0 | 0.0 | 0.00 | 0.00 | 0.00 | 46 | 986.2 |
| 20260510010014 | 74 | 6 | 0.0 | 0.0 | 0.00 | 0.00 | 0.00 | 46 | 986.5 |
| 20260510005510 | 74 | 6 | 0.0 | 0.0 | 0.00 | 0.00 | 0.00 | 43 | 986.4 |
| 20260510005008 | 75 | 6 | 0.0 | 0.0 | 0.00 | 0.00 | 0.00 | 43 | 986.6 |
| 20260510004505 | 76 | 6 | 0.0 | 0.0 | 0.00 | 0.00 | 0.00 | 42 | 986.5 |
| 20260510004003 | 77 | 6 | 0.0 | 0.0 | 0.00 | 0.00 | 0.00 | 39 | 986.4 |
| 20260510003459 | 78 | 324 | 0.0 | 0.0 | 0.00 | 0.00 | 0.00 | 39 | 986.4 |
| 20260510002954 | 78 | 324 | 0.0 | 0.0 | 0.00 | 0.00 | 0.00 | 38 | 986.2 |
| 20260510002451 | 78 | 324 | 0.0 | 0.0 | 0.00 | 0.00 | 0.00 | 38 | 986.3 |
| 20260510001947 | 79 | 324 | 0.0 | 1.0 | 0.00 | 0.00 | 0.00 | 42 | 986.1 |
| 20260510001445 | 79 | 323 | 0.0 | 0.0 | 0.00 | 0.00 | 0.00 | 39 | 986.3 |
| 20260510000942 | 80 | 323 | 0.0 | 1.0 | 0.00 | 0.00 | 0.00 | 39 | 986.1 |
| 20260510000440 | 80 | 322 | 0.0 | 0.0 | 0.00 | 0.00 | 0.00 | 39 | 986.2 |
| 20260509235935 | 81 | 322 | 0.0 | 0.0 | 0.00 | 0.00 | 0.00 | 36 | 986.0 |
| 20260509235432 | 82 | 322 | 0.0 | 1.0 | 0.00 | 0.00 | 0.00 | 34 | 986.4 |
| 20260509234928 | 82 | 75 | 0.0 | 1.0 | 0.00 | 0.00 | 0.00 | 34 | 986.1 |
| 20260509234425 | 83 | 128 | 1.0 | 2.0 | 0.00 | 0.00 | 0.00 | 36 | 986.1 |
| 20260509233923 | 83 | 241 | 1.0 | 1.0 | 0.00 | 0.00 | 0.00 | 32 | 986.0 |
| 20260509233420 | 83 | 120 | 1.0 | 1.0 | 0.00 | 0.00 | 0.00 | 34 | 986.2 |
| 20260509232916 | 83 | 1 | 0.0 | 2.0 | 0.00 | 0.00 | 0.00 | 34 | 986.1 |
| 20260509232414 | 83 | 5 | 2.0 | 3.0 | 0.00 | 0.00 | 0.00 | 32 | 986.0 |
| 20260509231909 | 82 | 95 | 1.0 | 2.0 | 0.00 | 0.00 | 0.00 | 32 | 986.2 |
| 20260509231406 | 82 | 21 | 3.0 | 4.0 | 0.00 | 0.00 | 0.00 | 30 | 986.1 |
| 20260509230905 | 83 | 19 | 3.0 | 6.0 | 0.00 | 0.00 | 0.00 | 31 | 986.1 |
| 20260509230401 | 83 | 340 | 1.0 | 2.0 | 0.00 | 0.00 | 0.00 | 31 | 986.1 |
| 20260509225857 | 83 | 24 | 1.0 | 4.0 | 0.00 | 0.00 | 0.00 | 31 | 986.1 |
| 20260509225354 | 84 | 325 | 2.0 | 3.0 | 0.00 | 0.00 | 0.00 | 29 | 986.0 |
| 20260509224849 | 83 | 165 | 1.0 | 2.0 | 0.00 | 0.00 | 0.00 | 30 | 986.1 |
| 20260509224345 | 83 | 126 | 4.0 | 4.0 | 0.00 | 0.00 | 0.00 | 30 | 986.3 |
| 20260509223843 | 83 | 262 | 3.0 | 3.0 | 0.00 | 0.00 | 0.00 | 30 | 986.0 |
| 20260509223339 | 83 | 135 | 1.0 | 4.0 | 0.00 | 0.00 | 0.00 | 30 | 986.3 |
| 20260509222837 | 84 | 144 | 2.0 | 3.0 | 0.00 | 0.00 | 0.00 | 31 | 986.2 |
| 20260509222332 | 84 | 42 | 3.0 | 3.0 | 0.00 | 0.00 | 0.00 | 33 | 985.9 |
| 20260509221827 | 84 | 126 | 1.0 | 3.0 | 0.00 | 0.00 | 0.00 | 29 | 986.1 |
| 20260509221325 | 83 | 105 | 1.0 | 3.0 | 0.00 | 0.00 | 0.00 | 33 | 986.1 |
| 20260509220825 | 83 | 104 | 2.0 | 3.0 | 0.00 | 0.00 | 0.00 | 29 | 986.2 |
| 20260509220321 | 83 | 66 | 1.0 | 4.0 | 0.00 | 0.00 | 0.00 | 30 | 986.3 |
| 20260509215817 | 83 | 133 | 1.0 | 6.0 | 0.00 | 0.00 | 0.00 | 32 | 986.1 |
| 20260509215314 | 83 | 142 | 2.0 | 3.0 | 0.00 | 0.00 | 0.00 | 31 | 986.1 |
| 20260509214811 | 83 | 16 | 4.0 | 4.0 | 0.00 | 0.00 | 0.00 | 31 | 986.1 |
| 20260509214308 | 83 | 118 | 1.0 | 3.0 | 0.00 | 0.00 | 0.00 | 34 | 986.2 |
| 20260509213805 | 83 | 318 | 1.0 | 2.0 | 0.00 | 0.00 | 0.00 | 32 | 986.4 |
| 20260509213300 | 83 | 151 | 2.0 | 8.0 | 0.00 | 0.00 | 0.00 | 33 | 986.2 |
| 20260509212758 | 82 | 340 | 2.0 | 3.0 | 0.00 | 0.00 | 0.00 | 31 | 986.2 |
| 20260509212255 | 83 | 354 | 4.0 | 10.0 | 0.00 | 0.00 | 0.00 | 33 | 986.3 |
| 20260509211751 | 83 | 160 | 3.0 | 6.0 | 0.00 | 0.00 | 0.00 | 31 | 986.4 |
| 20260509211247 | 83 | 118 | 2.0 | 3.0 | 0.00 | 0.00 | 0.00 | 35 | 986.3 |
| 20260509210744 | 83 | 9 | 2.0 | 3.0 | 0.00 | 0.00 | 0.00 | 33 | 986.4 |
| 20260509210242 | 83 | 206 | 3.0 | 6.0 | 0.00 | 0.00 | 0.00 | 33 | 986.6 |
| 20260509205741 | 83 | 300 | 2.0 | 3.0 | 0.00 | 0.00 | 0.00 | 35 | 986.6 |
| 20260509205236 | 83 | 238 | 4.0 | 4.0 | 0.00 | 0.00 | 0.00 | 36 | 986.6 |
| 20260509204732 | 82 | 48 | 1.0 | 3.0 | 0.00 | 0.00 | 0.00 | 42 | 986.6 |
| 20260509204229 | 82 | 26 | 3.0 | 6.0 | 0.00 | 0.00 | 0.00 | 38 | 986.6 |
| 20260509203725 | 82 | 169 | 2.0 | 3.0 | 0.00 | 0.00 | 0.00 | 35 | 986.8 |
| 20260509203223 | 82 | 99 | 1.0 | 4.0 | 0.00 | 0.00 | 0.00 | 36 | 986.8 |
| 20260509202718 | 81 | 230 | 2.0 | 6.0 | 0.00 | 0.00 | 0.00 | 39 | 986.6 |
| 20260509202214 | 82 | 30 | 1.0 | 3.0 | 0.00 | 0.00 | 0.00 | 39 | 986.7 |
| 20260509201709 | 81 | 31 | 3.0 | 4.0 | 0.00 | 0.00 | 0.00 | 39 | 986.8 |
| 20260509201206 | 82 | 276 | 1.0 | 4.0 | 0.00 | 0.00 | 0.00 | 38 | 986.7 |
| 20260509200702 | 81 | 145 | 2.0 | 4.0 | 0.00 | 0.00 | 0.00 | 43 | 986.7 |
| 20260509200157 | 81 | 40 | 1.0 | 6.0 | 0.00 | 0.00 | 0.00 | 40 | 986.8 |
| 20260509195654 | 80 | 106 | 2.0 | 3.0 | 0.00 | 0.00 | 0.00 | 42 | 986.7 |
| 20260509195149 | 81 | 196 | 2.0 | 6.0 | 0.00 | 0.00 | 0.00 | 39 | 987.0 |
| 20260509194649 | 81 | 113 | 1.0 | 4.0 | 0.00 | 0.00 | 0.00 | 42 | 987.0 |
| 20260509194146 | 80 | 166 | 1.0 | 3.0 | 0.00 | 0.00 | 0.00 | 42 | 986.7 |
| 20260509193642 | 80 | 149 | 1.0 | 3.0 | 0.00 | 0.00 | 0.00 | 43 | 987.0 |
| 20260509193137 | 80 | 215 | 4.0 | 6.0 | 0.00 | 0.00 | 0.00 | 43 | 987.2 |
| 20260509192634 | 80 | 326 | 3.0 | 3.0 | 0.00 | 0.00 | 0.00 | 42 | 987.2 |